• Processing (Info)

  • MPEC 2022-S104 : 2022 SK3

    The following Minor Planet Electronic Circular may be linked-to from your own Web pages, but must not otherwise be redistributed electronically.

    A form allowing access to any MPEC is at the bottom of this page.


    Read MPEC 2022-S103 Read MPEC 2022-S105


    M.P.E.C. 2022-S104                           Issued 2022 September 21, 03:58 UT
    
         The Minor Planet Electronic Circulars contain information on unusual
             minor planets and routine data on comets.  They are published
        on behalf of Division F of the International Astronomical Union by the
              Minor Planet Center, Smithsonian Astrophysical Observatory,
                              Cambridge, MA 02138, U.S.A.
    
                 Prepared using the Tamkin Foundation Computer Network
    
                                  MPC@CFA.HARVARD.EDU
                URL https://www.minorplanetcenter.net/    ISSN 1523-6714
    
                                    2022 SK3                                 
    
    
    Observations:
         K22S03K* C2022 09 18.45330600 12 17.811+06 58 22.11         20.66wUES104F52
         K22S03K  C2022 09 18.47427700 12 06.103+07 03 57.01         20.75wUES104F52
         K22S03K  C2022 09 18.48464700 12 00.337+07 06 41.92         20.86wUES104F52
         K22S03K  C2022 09 18.55435300 11 23.406+07 24 40.06         20.9 GVES104F52
         K22S03K KC2022 09 19.24236000 08 04.463+09 56 56.08         21.45GVES104I52
         K22S03K KC2022 09 19.24448700 08 03.599+09 57 20.84         20.87GVES104I52
         K22S03K KC2022 09 19.24662000 08 02.792+09 57 46.01         21.18GVES104I52
         K22S03K _C2022 09 19.29456900 07 58.593+10 07 56.26         21.6 GVES104568
         K22S03K _C2022 09 19.29554700 07 58.228+10 08 07.62         21.6 GVES104568
         K22S03K _C2022 09 19.29797100 07 57.320+10 08 35.90         21.4 GVES104568
         K22S03K KC2022 09 20.27349900 03 41.14 +12 43 02.8          21.8 VuES104H21
         K22S03K KC2022 09 20.27784500 03 39.79 +12 43 37.3          22.2 VuES104H21
    
    Observer details:
    568 Mauna Kea.  Observers R. Wainscoat, C. Cunningham.  Measurer M. Micheli.
        3.6-m Canada-France-Hawaii Telescope + CCD.
    F52 Pan-STARRS 2, Haleakala.  Observers J. Bulger, T. Lowe, A. Schultz, I.
        Smith.  Measurers K. Chambers, S. Chastel, T. de Boer, J. Fairlamb, H.
        Gao, M. Huber, C.-C. Lin, E. Magnier, Y. Ramanjooloo, R. Wainscoat, R.
        Weryk, M. Micheli.  1.8-m Ritchey-Chretien + CCD.
    H21 Astronomical Research Observatory, Westfield.  Observer R. Holmes.
        Measurers T. Linder, R. Holmes, L. Horn.  1.3-m f/4.0 astrograph + CCD.
    I52 Steward Observatory, Mt. Lemmon Station.  Observer J. B. Fazekas.
        Measurers E. J. Christensen, D. Fay, J. B. Fazekas, D. C. Fuls, A. R.
        Gibbs, A. D. Grauer, H. Groeller, J. K. Hogan, R. A. Kowalski, S. M.
        Larson, G. J. Leonard, D. Rankin, R. L. Seaman, A. Serrano, F. C. Shelly,
        K. W. Wierzchos.  1.0-m prime focus + CCD.
    
    Orbital elements:
    2022 SK3                                                 Earth MOID = 0.0073 AU
    Epoch 2022 Aug. 9.0 TT = JDT 2459800.5                  Bell                    
    M   8.21976              (2000.0)            P               Q                  
    n   0.69919064     Peri.  298.86220     +0.39905554     +0.91686884             
    a   1.2572037      Node   354.62583     -0.79827448     +0.34186542             
    e   0.2792536      Incl.    6.31705     -0.45112363     +0.20610570             
    P   1.41           H   28.78          G   0.15           U   8                  
    Residuals in seconds of arc
    220918 F52  0.2-  0.2-    220919 I52  0.3-  0.2+    220919 568  0.2-  0.1-
    220918 F52  0.2+  0.3-    220919 I52  0.2-  0.1-    220919 568  0.2-  0.1-
    220918 F52  0.1-  0.5+    220919 I52  0.8+  0.1-    220920 H21  0.1-  0.1+
    220918 F52  0.5+  0.2-    220919 568  0.3-  0.0     220920 H21  0.2-  0.2-
    
    Ephemeris:
    2022 SK3                 a,e,i = 1.26, 0.28, 6                   q = 0.9061
    Date    TT    R. A. (2000) Decl.     Delta      r    Elong.  Phase     V
    2022 08 22    11 33 18.5 -27 09 29   0.1114  0.9359    44.8   130.3    29.6
    ...
    2022 09 06    11 24 29.3 -35 08 33   0.04002 0.9789    42.3   136.2    28.1
    ...
    2022 09 14    04 10 29.3 -67 13 33   0.0074001.0074   100.6    79.0    20.9
    ...
    2022 09 20    00 04 42.5 +12 06 54   0.02700 1.0307   165.9    13.7    21.8
    2022 09 21    00 01 28.7 +14 12 07   0.03157 1.0347   164.7    14.9    22.2
    2022 09 22    23 59 00.8 +15 44 45   0.03618 1.0387   163.7    15.7    22.5
    ...
    2022 09 28    23 51 34.0 +20 04 26   0.06464 1.0635   160.7    18.1    23.9
    ...
    2022 10 06    23 48 57.9 +21 35 51   0.1045  1.0978   158.4    19.6    25.1
    ...
    2022 10 21    23 52 27.7 +21 34 00   0.1874  1.1641   151.7    23.9    26.6
    
    M. P. C. Staff               (C) Copyright 2022 MPC           M.P.E.C. 2022-S104
    


    Read MPEC 2022-S103 Read MPEC 2022-S105


    MPEC number:

    Enter an MPEC number in one of the following forms:

    • 1997-B01 (the full form)
    • J97B01 (the packed version of the full form)
    • B01 (the abbreviated form)